Location: Innsbruck
(47.2657°N, 11.3914°E)
Time: 20:41:37
(UTC+01:00)

BEESAT 2 - Pass Details

Date: 07 December 2021
Orbit: 498 x 513 km, 64.9° (Epoch: 24 January)

Event Time Altitude Azimuth Distance (km) Brightness Sun altitude
Exits shadow 06:00:42 38° 302° (WNW) 794 ? -17.3°
Maximum altitude 06:01:58 63° 237° (WSW) 577 ? -17.1°
Drops below altitude 10° 06:05:48 10° 156° (SSE) 1,732 ? -16.4°
Sets 06:07:58 0° 153° (SSE) 2,611 ? -16.1°
